Weather in Novyy Valovay

Russia / Penza Oblast     53°12′17″N   43°14′25″E
temp.,
°C
wind,
m/s
gust,
m/s
humid.,
%
clouds,
%
prec.,
mm/h
press.,
hPa
HPBL,
m
13 may, thu
thu1300:00+10s239583 0.0 1021139
03:00+8e22963 0.0 102127
06:00+11ene3596100 0.0 1020156
09:00+16e468441 0.0 1018537
12:00+17se248576 0.1 1017434
15:00+20s347060 1.3 1016917
18:00+19sw34790 0.1 1016395
21:00+15sse22880 0.1 101712
14 may, fri
fri1400:00+13s2291100 0.0 101813
03:00+13se2289100 0.0 101911
06:00+14se3488100 0.0 101999
09:00+20se45715 0.0 1019558
12:00+23se4556100 0.0 10181165
15:00+24se565590 0.0 10171249
18:00+23se51072100 0.0 1016437
21:00+18se4108682 0.0 1016171
15 may, sat
sat1500:00+18se51379100 0.0 1015245
03:00+16sse616655 0.0 1015347
06:00+15sse6156899 0.0 1015332
09:00+20sse8165992 0.0 1015626
12:00+23s8155111 0.0 10151128
15:00+24s612535 0.0 10151342
18:00+22s51163100 0.0 1015354
21:00+17s337936 0.0 101529
16 may, sun
sun1600:00+15wsw118521 0.0 101511
03:00+15nnw0086100 0.0 101611
06:00+17ene2285100 0.0 101675
09:00+21e226899 0.0 1016467
12:00+24s465459 0.0 1016983
15:00+25ssw584711 0.0 10161399
18:00+23s36655 0.0 1015179
21:00+18s227295 0.0 101611
17 may, mon
mon1700:00+17ese22735 0.0 101611
03:00+16e33777 0.0 101637
06:00+17e367825 0.0 1016115
09:00+22sse355772 0.0 1016280
12:00+26sse574566 0.0 10161069
15:00+27sse584574 0.0 10152009
18:00+24se486198 0.0 1015213
21:00+19ese4864100 0.0 1015112